Location: Chochol
(49.7771°N, 14.9780°E)
Time: 08:35:44
(UTC+00:00)

DUCHIFAT 1 - Visible Passes

Search period start: 11 May 2021 00:00
Search period end: 21 May 2021 00:00
Orbit: 586 x 602 km, 98.0° (Epoch: 10 May)

Date Brightness Start Highest point End Pass type
(mag) Time Alt. Az. Time Alt. Az. Time Alt. Az.
11 May ? 01:11:24 10° N 01:15:39 72° WNW 01:17:49 28° SSW visible
11 May ? 23:46:05 10° NE 23:48:52 17° E 23:50:33 14° ESE visible
12 May ? 01:20:38 10° N 01:24:49 58° WNW 01:27:10 24° SW visible
12 May ? 23:54:57 10° NE 23:58:09 20° E 23:59:54 16° SE visible
13 May ? 01:29:53 10° N 01:33:58 47° WNW 01:36:32 21° SW visible
14 May ? 00:03:55 10° NE 00:07:25 25° E 00:09:15 18° SE visible
14 May ? 01:39:09 10° N 01:43:07 39° WNW 01:45:53 17° SW visible
15 May ? 00:12:55 10° NNE 00:16:40 30° E 00:18:36 21° SE visible
15 May ? 01:48:27 10° N 01:52:15 32° WNW 01:55:14 14° WSW visible
16 May ? 00:21:58 10° NNE 00:25:55 36° E 00:27:57 23° SSE visible
16 May ? 01:57:46 10° N 02:01:22 27° WNW 02:04:34 12° WSW visible
17 May ? 00:31:03 10° NNE 00:35:08 44° E 00:37:18 24° SSE visible
17 May ? 02:07:08 10° N 02:10:28 23° WNW 02:13:47 10° WSW visible
18 May ? 00:40:10 10° NNE 00:44:21 55° E 00:46:38 25° S visible
18 May ? 02:16:32 10° NNW 02:19:34 19° WNW 02:22:34 10° WSW visible
19 May ? 00:49:19 10° NNE 00:53:33 68° ESE 00:55:59 24° S visible
19 May ? 02:26:00 10° NNW 02:28:39 16° WNW 02:31:17 10° W visible
20 May ? 00:58:28 10° NNE 01:02:45 84° ESE 01:05:19 23° SSW visible
20 May ? 23:34:00 10° ENE 23:35:46 12° E 23:37:33 10° ESE visible
